(80077) = 2000 SZ128 = 2000 SM273 = 1999 JL115

Discovered at Socorro on 1999-05-13 by LINEAR.

Orbit

Orbit type: Main Belt

Note: WebGL enabled browser required.

epoch2024-03-31.0
epoch JD2460400.5
perihelion date2020-03-14.24261
perihelion JD2458922.74261
argument of perihelion (°)204.97468
ascending node (°)64.23389
inclination (°)1.08625
eccentricity0.1748458
perihelion distance (AU)2.4483587
Tisserand w.r.t. Jupiter3.2
ΔV w.r.t. Earth (km/sec)9.9
semimajor axis (AU)2.9671529
mean anomaly (°)284.96866
mean daily motion (°/day)0.19283860
aphelion distance (AU)3.486
period (years)5.11
P-vector [x]-0.01388087
P-vector [y]-0.91418038
P-vector [z]-0.40506982
Q-vector [x]0.99975789
Q-vector [y]-0.00577201
Q-vector [z]-0.02123300
absolute magnitude15.33
phase slope0.15
uncertainty0
referenceMPEC 2024-F50
observations used1032
oppositions22
arc length (days)12212
first opposition used1990
last opposition used2024
residual rms (arc-secs)0.70
perturbers coarse indicatorM-v
perturbers precise indicator003Ek
first observation date used1990-10-12.0
last observation date used2024-03-19.0
computer nameMPCLINUX
JD of orbit computation2456937.222649
perihelion JD uncertainty (days)7.1111E-05
argument of perihelion uncertainty (°)2.0307E-04
ascending node uncertainty (°)2.0270E-04
inclination uncertainty (°)3.7623E-06
eccentricity uncertainty 2.9148E-08
perihelion distance uncertainty (AU)9.0973E-08
Minimum Orbit Intersection Distances (in AU)
for orbit epoch: 2460400.5, reference: E2024-GH2
Mercury1.98459
Venus1.72145
Earth1.43215
Mars0.96495
Jupiter1.60649
Saturn5.55824
Uranus15.2428
Neptune26.4535

Observations

1072 total observations over interval: 1990 10 12.33366 – 2024 03 19.471423
These data are available for download (format description).

Date (UT) J2000 RA J2000 Dec Magn Location Ref
1990 10 12.33366 01 21 32.70 +07 22 51.8 20.0 V 691 – Steward Observatory, Kitt Peak-Spacewatch MPS 77839
1990 10 12.35498 01 21 31.65 +07 22 45.9 20.5 V 691 – Steward Observatory, Kitt Peak-Spacewatch MPS 77839
1990 10 12.37614 01 21 30.60 +07 22 39.7 20.5 V 691 – Steward Observatory, Kitt Peak-Spacewatch MPS 77839
1999 05 13.30654 15 45 20.22 -19 34 09.0 18.6   704 – Lincoln Laboratory ETS, New Mexico MPS 5199
1999 05 13.32152 15 45 19.55 -19 34 06.2 18.9   704 – Lincoln Laboratory ETS, New Mexico MPS 5199
1999 05 13.33657 15 45 18.63 -19 34 06.1 18.7   704 – Lincoln Laboratory ETS, New Mexico MPS 5199
1999 05 13.35160 15 45 17.89 -19 34 01.5 18.7   704 – Lincoln Laboratory ETS, New Mexico MPS 5199
1999 05 18.28775 15 41 06.75 -19 22 57.6 18.3   704 – Lincoln Laboratory ETS, New Mexico MPS 5199
1999 05 18.30165 15 41 05.94 -19 22 53.5 18.8   704 – Lincoln Laboratory ETS, New Mexico MPS 5199
1999 05 18.31562 15 41 05.17 -19 22 53.0 18.8   704 – Lincoln Laboratory ETS, New Mexico MPS 5199
1999 05 18.32007 15 41 05.02 -19 22 53.0 17.9 R 699 – Lowell Observatory-LONEOS MPS 60815
1999 05 18.32950 15 41 04.52 -19 22 52.8 19.1   704 – Lincoln Laboratory ETS, New Mexico MPS 5199
1999 05 18.34042 15 41 03.89 -19 22 50.4   699 – Lowell Observatory-LONEOS MPS 60815
1999 05 18.36079 15 41 02.88 -19 22 47.2   699 – Lowell Observatory-LONEOS MPS 60815
1999 06 05.20300 15 26 39.14 -18 42 30.4 19.2 V 691 – Steward Observatory, Kitt Peak-Spacewatch MPS 5199
1999 06 05.22545 15 26 38.17 -18 42 28.4 19.6 V 691 – Steward Observatory, Kitt Peak-Spacewatch MPS 5199
1999 06 05.24804 15 26 37.12 -18 42 25.2 19.3 V 691 – Steward Observatory, Kitt Peak-Spacewatch MPS 5199
1999 06 10.18340 15 23 23.13 -18 33 12.8 19.1 V 691 – Steward Observatory, Kitt Peak-Spacewatch MPS 5199
1999 06 10.20536 15 23 22.26 -18 33 10.3 19.2 V 691 – Steward Observatory, Kitt Peak-Spacewatch MPS 5199
1999 06 10.22755 15 23 21.41 -18 33 08.1 18.9 V 691 – Steward Observatory, Kitt Peak-Spacewatch MPS 5199
1999 06 12.22544 15 22 11.41 -18 29 51.3 18.9 V 691 – Steward Observatory, Kitt Peak-Spacewatch MPS 5199
1999 06 12.24742 15 22 10.61 -18 29 49.1 19.0 V 691 – Steward Observatory, Kitt Peak-Spacewatch MPS 5199
1999 06 12.26935 15 22 09.84 -18 29 47.0 19.3 V 691 – Steward Observatory, Kitt Peak-Spacewatch MPS 5199
1999 06 22.17668 15 17 49.01 -18 18 21.5 19.3 V 691 – Steward Observatory, Kitt Peak-Spacewatch MPS 5617
1999 06 22.19876 15 17 48.56 -18 18 20.7 19.2 V 691 – Steward Observatory, Kitt Peak-Spacewatch MPS 5617
1999 06 22.22192 15 17 48.03 -18 18 19.0 19.6 V 691 – Steward Observatory, Kitt Peak-Spacewatch MPS 5617
2000 09 05.27427 00 21 09.49 +00 38 26.1 19.5   704 – Lincoln Laboratory ETS, New Mexico MPS 20000
2000 09 05.28799 00 21 08.91 +00 38 22.0 19.5   704 – Lincoln Laboratory ETS, New Mexico MPS 20000
2000 09 05.30108 00 21 08.35 +00 38 17.5 19.2   704 – Lincoln Laboratory ETS, New Mexico MPS 20001
2000 09 05.31420 00 21 07.79 +00 38 14.9 19.7   704 – Lincoln Laboratory ETS, New Mexico MPS 20001
2000 09 25.27378 00 06 05.92 -00 57 44.8 18.9   704 – Lincoln Laboratory ETS, New Mexico MPS 20001
2000 09 25.28848 00 06 05.21 -00 57 48.4 19.2   704 – Lincoln Laboratory ETS, New Mexico MPS 20001
2000 09 25.30319 00 06 04.39 -00 57 51.5 19.5   704 – Lincoln Laboratory ETS, New Mexico MPS 20001
2000 09 25.31791 00 06 03.71 -00 57 58.0 19.2   704 – Lincoln Laboratory ETS, New Mexico MPS 20001
2000 09 27.25020 00 04 32.76 -01 07 19.5 19.1   704 – Lincoln Laboratory ETS, New Mexico MPS 20001
2000 09 27.28038 00 04 31.37 -01 07 27.6 19.3   704 – Lincoln Laboratory ETS, New Mexico MPS 20001
2000 09 27.31054 00 04 29.83 -01 07 37.0 19.1   704 – Lincoln Laboratory ETS, New Mexico MPS 20001
2000 09 28.26521 00 03 45.34 -01 12 12.0 19.0   704 – Lincoln Laboratory ETS, New Mexico MPS 20001
2000 09 28.28025 00 03 44.63 -01 12 16.4 18.7   704 – Lincoln Laboratory ETS, New Mexico MPS 20001
2000 09 28.29531 00 03 43.78 -01 12 19.8 18.8   704 – Lincoln Laboratory ETS, New Mexico MPS 20221
2000 09 28.31037 00 03 43.09 -01 12 23.8 19.6   704 – Lincoln Laboratory ETS, New Mexico MPS 20001
2000 09 28.32543 00 03 42.38 -01 12 27.3 19.5   704 – Lincoln Laboratory ETS, New Mexico MPS 20001
2000 10 01.17425 00 01 31.26 -01 25 51.4 18.9   704 – Lincoln Laboratory ETS, New Mexico MPS 20001
2000 10 01.18953 00 01 30.54 -01 25 55.0 18.8   704 – Lincoln Laboratory ETS, New Mexico MPS 20001
2000 10 01.20460 00 01 29.80 -01 25 59.7 18.9   704 – Lincoln Laboratory ETS, New Mexico MPS 20001
2000 10 01.21968 00 01 29.11 -01 26 04.1 19.2   704 – Lincoln Laboratory ETS, New Mexico MPS 20001
2000 10 01.23476 00 01 28.40 -01 26 07.6 19.3   704 – Lincoln Laboratory ETS, New Mexico MPS 20001
2000 10 01.32477 00 01 24.10 -01 26 34.2 18.9 R 699 – Lowell Observatory-LONEOS MPS 20813
2000 10 01.34475 00 01 23.25 -01 26 39.7   699 – Lowell Observatory-LONEOS MPS 20813
2000 10 01.36476 00 01 22.35 -01 26 44.5   699 – Lowell Observatory-LONEOS MPS 20813
2000 10 01.38476 00 01 21.34 -01 26 50.3   699 – Lowell Observatory-LONEOS MPS 20813
2000 10 02.29892 00 00 40.14 -01 31 00.8 18.8   704 – Lincoln Laboratory ETS, New Mexico MPS 20001
2000 10 02.31450 00 00 39.38 -01 31 05.4 19.2   704 – Lincoln Laboratory ETS, New Mexico MPS 20001
2000 10 02.33017 00 00 38.65 -01 31 11.0 20.0   704 – Lincoln Laboratory ETS, New Mexico MPS 20001
2000 10 02.33066 00 00 38.68 -01 31 09.6 19.7   704 – Lincoln Laboratory ETS, New Mexico MPS 20001
2000 10 02.34568 00 00 38.01 -01 31 14.7 19.5   704 – Lincoln Laboratory ETS, New Mexico MPS 20001
2000 10 02.34617 00 00 37.94 -01 31 12.8 19.7   704 – Lincoln Laboratory ETS, New Mexico MPS 20001
2000 10 02.36129 00 00 37.25 -01 31 17.6 19.6   704 – Lincoln Laboratory ETS, New Mexico MPS 20001
2000 10 02.36179 00 00 37.18 -01 31 17.1 19.5   704 – Lincoln Laboratory ETS, New Mexico MPS 20001
2001 11 20.37607 04 53 17.60 +22 42 11.9 20.7 V 291 – LPL/Spacewatch II MPS 41689
2001 11 20.39793 04 53 16.46 +22 42 10.6 20.7 V 291 – LPL/Spacewatch II MPS 41689
2001 11 20.41984 04 53 15.37 +22 42 08.8 21.6 V 291 – LPL/Spacewatch II MPS 41689
2001 11 21.30608 04 52 31.16 +22 41 11.8 19.7   704 – Lincoln Laboratory ETS, New Mexico MPS 41689
2001 11 21.32075 04 52 30.37 +22 41 10.8 21.0   704 – Lincoln Laboratory ETS, New Mexico MPS 41689
2001 11 21.33534 04 52 29.61 +22 41 08.9 20.4   704 – Lincoln Laboratory ETS, New Mexico MPS 41689
2001 11 21.36455 04 52 28.12 +22 41 07.1 20.5   704 – Lincoln Laboratory ETS, New Mexico MPS 41689
2001 12 09.22680 04 36 42.09 +22 16 53.7 21.1   644 – Palomar Mountain/NEAT MPS 43096
2001 12 09.30275 04 36 37.97 +22 16 46.4 20.8   644 – Palomar Mountain/NEAT MPS 43096
2001 12 09.38725 04 36 33.38 +22 16 38.3 20.7   644 – Palomar Mountain/NEAT MPS 43096
2001 12 17.35256 04 29 46.54 +22 04 15.6 21.4 V 291 – LPL/Spacewatch II MPS 43096
2001 12 17.37430 04 29 45.43 +22 04 13.6 22.1 V 291 – LPL/Spacewatch II MPS 43096
2001 12 17.39791 04 29 44.27 +22 04 11.3 21.0 V 291 – LPL/Spacewatch II MPS 43096
2001 12 19.25500 04 28 15.18 +22 01 18.6 20.7   704 – Lincoln Laboratory ETS, New Mexico MPS 43096
2001 12 19.27014 04 28 14.37 +22 01 17.2 20.4   704 – Lincoln Laboratory ETS, New Mexico MPS 43096
2001 12 19.28528 04 28 13.67 +22 01 15.3 20.7   704 – Lincoln Laboratory ETS, New Mexico MPS 43096
2001 12 23.19602 04 25 15.02 +21 55 24.2 21.6 V 291 – LPL/Spacewatch II MPS 43096
2001 12 23.21114 04 25 14.30 +21 55 22.9 21.1 V 291 – LPL/Spacewatch II MPS 43096
2001 12 23.22507 04 25 13.69 +21 55 22.0 20.9 V 291 – LPL/Spacewatch II MPS 43096
2003 02 09.25522 08 54 38.08 +18 55 44.6 20.6 V 291 – LPL/Spacewatch II MPS 73083
2003 02 09.26911 08 54 37.36 +18 55 47.3 20.6 V 291 – LPL/Spacewatch II MPS 73083
2003 02 09.28492 08 54 36.50 +18 55 50.5 20.7 V 291 – LPL/Spacewatch II MPS 73083
2004 04 12.37991 14 48 19.81 -15 21 33.2 18.7 R 699 – Lowell Observatory-LONEOS MPS 104147
2004 04 12.39594 14 48 19.25 -15 21 31.3   699 – Lowell Observatory-LONEOS MPS 104147
2004 04 12.41204 14 48 18.60 -15 21 28.0   699 – Lowell Observatory-LONEOS MPS 104147
2004 04 12.42806 14 48 17.91 -15 21 26.4   699 – Lowell Observatory-LONEOS MPS 104147
